This is the latest recevied weather packets stored in our database for station/object KC4KQE. If no packets are shown the sender has not sent any weather packets the latest 10 day(s).
| Time | Temp. | Humidity | Pressure | Rain* | Wind** | Luminosity | Snow |
|---|---|---|---|---|---|---|---|
| 1778024056 | 24.44° C | 25% | 1010 hPa | 0 mm | - | 155 W/m² | - |
| 1778023756 | 24.44° C | 26% | 1009.9 hPa | 0 mm | - | 670 W/m² | - |
| 1778023456 | 24.44° C | 25% | 1009.9 hPa | 0 mm | - | 687 W/m² | - |
| 1778023156 | 23.89° C | 26% | 1009.9 hPa | 0 mm | - | 390 W/m² | - |
| 1778022856 | 24.44° C | 25% | 1010 hPa | 0 mm | - | 206 W/m² | - |
| 1778022556 | 24.44° C | 25% | 1009.9 hPa | 0 mm | - | 601 W/m² | - |
| 1778022256 | 24.44° C | 25% | 1009.9 hPa | 0 mm | - | 707 W/m² | - |
| 1778021956 | 25° C | 26% | 1009.9 hPa | 0 mm | - | 721 W/m² | - |
| 1778021656 | 24.44° C | 26% | 1010 hPa | 0 mm | - | 714 W/m² | - |
| 1778021356 | 24.44° C | 25% | 1010 hPa | 0 mm | - | 715 W/m² | - |
| 1778021056 | 25° C | 26% | 1010 hPa | 0 mm | - | 722 W/m² | - |
| 1778020756 | 25° C | 27% | 1010.1 hPa | 0 mm | - | 722 W/m² | - |
| 1778020456 | 24.44° C | 27% | 1010.1 hPa | 0 mm | - | 763 W/m² | - |
| 1778020156 | 23.89° C | 29% | 1010.2 hPa | 0 mm | - | 207 W/m² | - |
| 1778019856 | 24.44° C | 29% | 1010.2 hPa | 0 mm | - | 828 W/m² | - |
| 1778019556 | 23.89° C | 29% | 1010.3 hPa | 0 mm | - | 865 W/m² | - |
| 1778019258 | 23.89° C | 29% | 1010.3 hPa | 0 mm | - | 236 W/m² | - |
| 1778018956 | 24.44° C | 28% | 1010.2 hPa | 0 mm | - | 949 W/m² | - |
| 1778018656 | 24.44° C | 30% | 1010.4 hPa | 0 mm | - | 918 W/m² | - |
| 1778018356 | 24.44° C | 31% | 1010.4 hPa | 0 mm | - | 225 W/m² | - |
| 1778018056 | 24.44° C | 30% | 1010.4 hPa | 0 mm | - | 951 W/m² | - |
| 1778017756 | 24.44° C | 30% | 1010.5 hPa | 0 mm | - | 907 W/m² | - |
| 1778017458 | 23.89° C | 32% | 1010.5 hPa | 0 mm | - | 944 W/m² | - |
| 1778017156 | 23.89° C | 32% | 1010.6 hPa | 0 mm | - | 346 W/m² | - |
| 1778016856 | 24.44° C | 32% | 1010.6 hPa | 0 mm | - | 912 W/m² | - |
* Rain latest hour (hover to see other rain measurements)
** Current wind speed in m/s (hover to see current wind gust speed)